Погода в Табанане

Индонезия     8°32′13″S   115°07′30″E
темп.,
°C
ветер,
м/с
пор.,
м/с
влажн.,
%
обл.,
%
осадки,
мм/ч
давл.,
гПа
погр.,
м
2 марта, вт
вт223:00+22с229028 0.0 101129
02:00+22с128653 0.0 101025
05:00+22с1284100 0.0 100826
08:00+26ссв117276 0.0 101091
11:00+32ю234812 0.0 10101227
14:00+31ююз335810 0.6 10091041
17:00+27ююз138668 3.3 1008325
20:00+23ссз119356 4.4 101025
3 марта, ср
ср323:00+23с229240 0.6 101130
02:00+22с229048 0.6 101028
05:00+22с228640 0.0 100927
08:00+25ссв117340 0.0 101066
11:00+31юз244816 0.0 10111243
14:00+32ююз344411 0.0 10081249
17:00+28ю22670 0.3 1008857
20:00+23с119329 2.1 101024
4 марта, чт
чт423:00+23с129347 2.6 101227
02:00+22с129245 2.6 101027
05:00+21с128875 0.0 101027
08:00+25с117972 0.0 101167
11:00+30юз2255100 0.0 1011964
14:00+30юз3458100 0.7 10091080
17:00+26зюз2488100 2.0 1008452
20:00+23ссз1295100 2.4 101041
5 марта, пт
пт523:00+22ссз2292100 0.1 101148
02:00+22ссз2492100 0.1 1010118
05:00+22ссз2491100 0.0 1009144
08:00+24зсз148999 0.8 1011318
11:00+27зюз248186 3.0 1011647
14:00+27юз358192 5.9 1009754
17:00+25зюз2491100 3.1 1008507
20:00+22ссз1296100 4.1 101038
6 марта, сб
сб623:00+22с1294100 0.0 101130
02:00+22с1292100 0.0 100930
05:00+21с1289100 0.0 100826
08:00+24с1178100 0.0 101157
11:00+30ююз2254100 0.0 10101086
14:00+30ю326275 1.3 10081137
17:00+27ююз237996 2.8 1008526
20:00+23с119498 4.0 101027